Weather History for Jonesville, VA

Change the Weather History Date:

Sunday, August 19, 2012

  Actual Average (KLOZ) Record (KLOZ)
Temperature  
Mean Temperature 70 °F 75 °F  
Max Temperature 78 °F 86 °F 96 °F (2007)
Min Temperature 60 °F 65 °F 54 °F (1982)
Degree Days  
Heating Degree Days 0 0  
Month to date heating degree days 0  
Since 1 June heating degree days 9  
Since 1 July heating degree days 0  
Cooling Degree Days 5 10  
Month to date cooling degree days 205  
Year to date cooling degree days 912  
Since 1 June cooling degree days 798  
Growing Degree Days 20 (Base 50)    
Moisture  
Dew Point 62 °F    
Average Humidity 80    
Maximum Humidity 100    
Minimum Humidity 54    
Precipitation  
Precipitation 0.00 in 0.12 in 2.02 in (1999)
Month to date precipitation 2.40  
Year to date precipitation 31.37  
Sea Level Pressure  
Sea Level Pressure 29.93 in    
Wind  
Wind Speed 2 mph (SW)    
Max Wind Speed 8 mph    
Max Gust Speed -    
Visibility 10 miles    
Events      
T = Trace of Precipitation, MM = Missing Value Source: NWS Daily Summary

Daily Weather History Graph

Daily Weather History Graph

Search for Another Location

Airport:

Trip Planner

Search our weather history database for the weather conditions in past years. The results will help you decide how hot, cold, wet, or windy it might be!

Date:

Astronomy

Aug. 19, 2012 Rise Set
Actual Time 6:53 AM EDT 8:18 PM EDT
Civil Twilight 6:26 AM EDT 8:45 PM EDT
Nautical Twilight 5:54 AM EDT 9:17 PM EDT
Astronomical Twilight 5:20 AM EDT 9:51 PM EDT
Moon 9:01 AM EDT (8/19) 9:12 PM EDT (8/19)
Length of Visible Light 14h 18m
Length of Day
13h 24m
Waxing Crescent, 5% of the Moon is Illuminated
Aug 19
Waxing Crescent
Aug 24
First Quarter
Aug 31
Full
Sep 8
Last Quarter
Sep 15
New

Hourly Weather History & Observations

Time (EDT) Temp. Dew Point Humidity Pressure Visibility Wind Dir Wind Speed Gust Speed Precip Events Conditions
12:55 AM 62.6 °F 62.6 °F 100% 29.96 in 9.0 mi Calm Calm - N/A   Unknown
1:15 AM 62.6 °F 62.6 °F 100% 29.96 in 9.0 mi Calm Calm - N/A   Unknown
1:35 AM 62.6 °F 62.6 °F 100% 29.96 in 10.0 mi Calm Calm - N/A   Unknown
1:55 AM 62.6 °F 60.8 °F 94% 29.95 in 10.0 mi Calm Calm - N/A   Unknown
2:15 AM 62.6 °F 60.8 °F 94% 29.95 in 9.0 mi Calm Calm - N/A   Unknown
2:35 AM 62.6 °F 60.8 °F 94% 29.95 in 10.0 mi Calm Calm - N/A   Unknown
2:55 AM 62.6 °F 60.8 °F 94% 29.94 in 8.0 mi Calm Calm - N/A   Unknown
3:15 AM 62.6 °F 60.8 °F 94% 29.94 in 10.0 mi Calm Calm - N/A   Unknown
3:55 AM 62.6 °F 62.6 °F 100% 29.93 in 10.0 mi Calm Calm - N/A   Unknown
4:15 AM 62.6 °F 62.6 °F 100% 29.93 in 6.0 mi North 3.5 mph - N/A   Mist
4:35 AM 62.6 °F 60.8 °F 94% 29.93 in 10.0 mi Calm Calm - N/A   Unknown
4:55 AM 62.6 °F 62.6 °F 100% 29.93 in 10.0 mi Calm Calm - N/A   Unknown
5:15 AM 62.6 °F 62.6 °F 100% 29.92 in 10.0 mi Calm Calm - N/A   Unknown
5:35 AM 62.6 °F 62.6 °F 100% 29.91 in 8.0 mi Calm Calm - N/A   Unknown
5:55 AM 62.6 °F 60.8 °F 94% 29.92 in 9.0 mi NE 3.5 mph - N/A   Unknown
6:15 AM 62.6 °F 60.8 °F 94% 29.92 in 10.0 mi ESE 4.6 mph - N/A   Unknown
6:35 AM 62.6 °F 60.8 °F 94% 29.93 in 10.0 mi ENE 4.6 mph - N/A   Unknown
6:55 AM 62.6 °F 59.0 °F 88% 29.93 in 10.0 mi NE 5.8 mph - N/A   Unknown
7:15 AM 64.4 °F 59.0 °F 83% 29.93 in 10.0 mi NE 3.5 mph - N/A   Unknown
7:35 AM 64.4 °F 59.0 °F 83% 29.94 in 10.0 mi Calm Calm - N/A   Clear
7:55 AM 64.4 °F 59.0 °F 83% 29.94 in 10.0 mi Calm Calm - N/A   Clear
8:35 AM 64.4 °F 62.6 °F 94% 29.96 in 10.0 mi Calm Calm - N/A   Scattered Clouds
8:55 AM 64.4 °F 62.6 °F 94% 29.96 in 10.0 mi SE 3.5 mph - N/A   Partly Cloudy
9:15 AM 66.2 °F 62.6 °F 88% 29.96 in 10.0 mi Calm Calm - N/A   Partly Cloudy
9:55 AM 68.0 °F 62.6 °F 83% 29.96 in 10.0 mi Calm Calm - N/A   Clear
10:15 AM 69.8 °F 62.6 °F 78% 29.96 in 10.0 mi Calm Calm - N/A   Clear
10:35 AM 69.8 °F 60.8 °F 73% 29.96 in 10.0 mi Calm Calm - N/A   Clear
10:55 AM 69.8 °F 62.6 °F 78% 29.96 in 10.0 mi Calm Calm - N/A   Clear
11:15 AM 71.6 °F 62.6 °F 73% 29.96 in 10.0 mi Calm Calm - N/A   Clear
11:35 AM 71.6 °F 62.6 °F 73% 29.95 in 10.0 mi Calm Calm - N/A   Partly Cloudy
11:55 AM 73.4 °F 60.8 °F 65% 29.96 in 10.0 mi West 5.8 mph - N/A   Partly Cloudy
12:15 PM 73.4 °F 59.0 °F 61% 29.95 in 10.0 mi West 6.9 mph - N/A   Scattered Clouds
12:35 PM 75.2 °F 59.0 °F 57% 29.95 in 10.0 mi SW 4.6 mph - N/A   Partly Cloudy
12:55 PM 75.2 °F 59.0 °F 57% 29.94 in 10.0 mi WSW 4.6 mph - N/A   Clear
1:15 PM 75.2 °F 59.0 °F 57% 29.94 in 10.0 mi WSW 3.5 mph - N/A   Clear
1:35 PM 77.0 °F 60.8 °F 57% 29.94 in 10.0 mi Calm Calm - N/A   Clear
1:55 PM 77.0 °F 60.8 °F 57% 29.93 in 10.0 mi SW 6.9 mph - N/A   Scattered Clouds
2:15 PM 77.0 °F 60.8 °F 57% 29.93 in 10.0 mi SW 6.9 mph - N/A   Partly Cloudy
2:35 PM 78.8 °F 60.8 °F 54% 29.92 in 10.0 mi WSW 5.8 mph - N/A   Scattered Clouds
2:55 PM 78.8 °F 60.8 °F 54% 29.92 in 10.0 mi SSW 5.8 mph - N/A   Partly Cloudy
3:15 PM 77.0 °F 60.8 °F 57% 29.90 in 10.0 mi South 3.5 mph - N/A   Clear
3:55 PM 77.0 °F 60.8 °F 57% 29.89 in 10.0 mi West 3.5 mph - N/A   Clear
4:15 PM 77.0 °F 60.8 °F 57% 29.90 in 10.0 mi SSW 6.9 mph - N/A   Partly Cloudy
4:35 PM 77.0 °F 62.6 °F 61% 29.89 in 10.0 mi SW 8.1 mph - N/A   Partly Cloudy
4:55 PM 77.0 °F 64.4 °F 65% 29.90 in 10.0 mi SSW 8.1 mph - N/A   Partly Cloudy
5:15 PM 77.0 °F 62.6 °F 61% 29.90 in 10.0 mi SW 8.1 mph - N/A   Scattered Clouds
5:35 PM 75.2 °F 64.4 °F 69% 29.90 in 10.0 mi South 6.9 mph - N/A   Partly Cloudy
5:55 PM 75.2 °F 64.4 °F 69% 29.90 in 10.0 mi South 5.8 mph - N/A   Partly Cloudy
6:15 PM 75.2 °F 62.6 °F 65% 29.90 in 10.0 mi SSW 6.9 mph - N/A   Scattered Clouds
6:35 PM 75.2 °F 62.6 °F 65% 29.90 in 10.0 mi South 6.9 mph - N/A   Mostly Cloudy
6:55 PM 75.2 °F 62.6 °F 65% 29.90 in 10.0 mi SSW 4.6 mph - N/A   Clear
7:15 PM 75.2 °F 62.6 °F 65% 29.90 in 10.0 mi SW 4.6 mph - N/A   Partly Cloudy
7:35 PM 73.4 °F 62.6 °F 69% 29.90 in 10.0 mi WSW 3.5 mph - N/A   Clear
7:55 PM 73.4 °F 62.6 °F 69% 29.90 in 10.0 mi WSW 3.5 mph - N/A   Clear
8:15 PM 69.8 °F 64.4 °F 83% 29.91 in 10.0 mi Calm Calm - N/A   Clear
8:35 PM 68.0 °F 62.6 °F 83% 29.91 in 10.0 mi WNW 3.5 mph - N/A   Unknown
8:55 PM 68.0 °F 64.4 °F 88% 29.92 in 10.0 mi Calm Calm - N/A   Unknown
9:35 PM 66.2 °F 64.4 °F 94% 29.92 in 10.0 mi Calm Calm - N/A   Unknown
9:55 PM 64.4 °F 62.6 °F 94% 29.93 in 10.0 mi Calm Calm - N/A   Unknown
10:15 PM 64.4 °F 62.6 °F 94% 29.94 in 10.0 mi Calm Calm - N/A   Unknown
10:35 PM 64.4 °F 62.6 °F 94% 29.94 in 10.0 mi Calm Calm - N/A   Unknown
10:55 PM 62.6 °F 62.6 °F 100% 29.95 in 8.0 mi Calm Calm - N/A   Unknown
11:15 PM 62.6 °F 62.6 °F 100% 29.94 in 9.0 mi Calm Calm - N/A   Unknown
11:35 PM 62.6 °F 62.6 °F 100% 29.95 in 10.0 mi Calm Calm - N/A   Unknown
11:55 PM 60.8 °F 60.8 °F 100% 29.95 in 7.0 mi Calm Calm - N/A   Unknown